Terminal Aerodrome Forecast
Issued by NWS

Home | Current Version | Previous Version | Text Only | Print | Product List | Glossary On
Versions: 1 2 3 4 5 6 7 8 9 10 11 12 13 14 15
000
FTUS44 KOUN 242328
TAFHBR
TAF
KHBR 242328Z 2500/2524 17016G22KT P6SM SCT040
     FM250900 17014G21KT P6SM BKN015
     FM251300 18013KT P6SM FEW015
     FM251500 19015G22KT P6SM SCT035=

USA.gov is the U.S. government's official web portal to all federal, state and local government web resources and services.